KD0QEO Weather Reports


time (UTC)temp
C
wind
direction
speed
KPH
gust
KPH
rain 1hr
cm
rain 24hr
cm
rain mn
cm
humidity
%
barometer
mb
20260508211548 25 360 22.5 33.8 0.00 0.00 0.00 20 1007.9
20260508210105 24 360 17.7 41.8 0.00 0.00 0.00 22 1008.0
20260508204554 25 360 24.1 41.8 0.00 0.00 0.00 23 1008.2
20260508203054 24 360 25.7 45.1 0.00 0.00 0.00 21 1008.3
20260508201550 25 360 27.4 37.0 0.00 0.00 0.00 22 1008.3
20260508200050 24 360 17.7 30.6 0.00 0.00 0.00 28 1008.5
20260508194551 24 360 20.9 37.0 0.00 0.00 0.00 25 1008.5
20260508193052 24 360 19.3 30.6 0.00 0.00 0.00 25 1008.6
20260508191548 24 360 22.5 35.4 0.00 0.00 0.00 26 1008.9
20260508184608 23 360 17.7 32.2 0.00 0.00 0.00 26 1009.1
20260508183051 23 360 9.7 43.5 0.00 0.00 0.00 26 1009.4
20260508181601 23 360 17.7 27.4 0.00 0.00 0.00 27 1009.6
20260508180049 23 360 22.5 32.2 0.00 0.00 0.00 27 1009.8
20260508174547 22 360 1.6 24.1 0.00 0.00 0.00 30 1009.8
20260508173057 22 360 20.9 30.6 0.00 0.00 0.00 28 1010.1
20260508171550 22 360 12.9 29.0 0.00 0.00 0.00 28 1010.1
20260508170051 21 360 8.0 30.6 0.00 0.00 0.00 30 1010.2
20260508164601 21 360 14.5 24.1 0.00 0.00 0.00 29 1010.2
20260508163046 21 360 6.4 25.7 0.00 0.00 0.00 30 1010.3
20260508161551 21 360 6.4 12.9 0.00 0.00 0.00 32 1010.6
20260508160051 20 360 4.8 12.9 0.00 0.00 0.00 29 1010.4
20260508154549 20 360 3.2 9.7 0.00 0.00 0.00 29 1010.4
20260508153050 20 0 1.6 6.4 0.00 0.00 0.00 30 1010.3
20260508151603 18 360 4.8 9.7 0.00 0.00 0.00 33 1010.3
20260508150059 18 360 6.4 14.5 0.00 0.00 0.00 33 1010.3
20260508144619 18 360 9.7 16.1 0.00 0.00 0.00 33 1010.2
20260508143053 17 360 4.8 12.9 0.00 0.00 0.00 39 1010.3
20260508141602 17 360 8.0 16.1 0.00 0.00 0.00 37 1010.4
20260508140054 16 360 6.4 14.5 0.00 0.00 0.00 40 1010.3
20260508134553 15 360 9.7 14.5 0.00 0.00 0.00 42 1010.2
20260508133114 15 360 6.4 14.5 0.00 0.00 0.00 45 1009.9
20260508131551 12 360 6.4 12.9 0.00 0.00 0.00 48 1009.9
20260508130052 11 360 8.0 14.5 0.00 0.00 0.00 51 1009.7
20260508124550 10 360 6.4 9.7 0.00 0.00 0.00 53 1009.7
20260508123100 9 360 3.2 8.0 0.00 0.00 0.00 57 1009.9
20260508121548 8 360 1.6 6.4 0.00 0.00 0.00 57 1009.8
20260508120053 8 360 4.8 12.9 0.00 0.00 0.00 58 1009.8
20260508114551 8 360 4.8 9.7 0.00 0.00 0.00 61 1009.7
20260508113105 8 360 3.2 6.4 0.00 0.00 0.00 57 1009.5
20260508111551 8 360 4.8 9.7 0.00 0.00 0.00 56 1009.5
20260508110055 8 360 3.2 8.0 0.00 0.00 0.00 58 1009.0
20260508104550 9 360 3.2 12.9 0.00 0.00 0.00 55 1009.0
20260508103059 10 360 4.8 9.7 0.00 0.00 0.00 49 1008.7
20260508101551 10 360 4.8 9.7 0.00 0.00 0.00 49 1008.9
20260508100046 10 360 8.0 12.9 0.00 0.00 0.00 51 1008.7
20260508094546 11 360 6.4 12.9 0.00 0.00 0.00 49 1008.7
20260508093046 11 360 6.4 12.9 0.00 0.00 0.00 54 1008.9
20260508091558 10 360 6.4 8.0 0.00 0.00 0.00 53 1008.8
20260508090107 10 360 4.8 12.9 0.00 0.00 0.00 55 1008.9
20260508084547 11 360 6.4 12.9 0.00 0.00 0.00 52 1008.9
20260508083050 12 360 11.3 19.3 0.00 0.00 0.00 44 1008.9
20260508081558 12 360 12.9 19.3 0.00 0.00 0.00 47 1008.9
20260508080052 12 360 14.5 19.3 0.00 0.00 0.00 48 1009.1
20260508074546 12 360 4.8 14.5 0.00 0.00 0.00 56 1009.2
20260508073101 12 360 11.3 20.9 0.00 0.00 0.00 49 1009.6
20260508071600 14 360 12.9 25.7 0.00 0.00 0.00 35 1010.1
20260508070056 15 360 14.5 22.5 0.00 0.00 0.00 32 1009.8
20260508064549 13 360 8.0 17.7 0.00 0.00 0.00 39 1009.9
20260508063049 13 360 4.8 12.9 0.00 0.00 0.00 40 1010.2
20260508061553 13 360 8.0 14.5 0.00 0.00 0.00 40 1009.9
20260508060053 13 360 6.4 14.5 0.00 0.00 0.00 42 1009.8
20260508054548 13 360 8.0 14.5 0.00 0.00 0.00 41 1009.8
20260508053114 13 360 9.7 19.3 0.00 0.00 0.00 39 1009.7
20260508051549 13 360 9.7 14.5 0.00 0.00 0.00 38 1009.7
20260508050049 13 360 8.0 14.5 0.00 0.00 0.00 39 1009.7
20260508044554 13 360 6.4 14.5 0.00 0.00 0.00 40 1009.7
20260508043056 13 360 9.7 17.7 0.00 0.00 0.00 38 1009.6
20260508041613 14 360 11.3 16.1 0.00 0.00 0.00 37 1009.6
20260508040109 13 360 8.0 14.5 0.00 0.00 0.00 38 1009.6
20260508034553 14 360 6.4 19.3 0.00 0.00 0.00 36 1009.7
20260508033050 14 360 8.0 14.5 0.00 0.00 0.00 35 1009.6
20260508031559 14 360 6.4 9.7 0.00 0.00 0.00 36 1009.5
20260508030050 15 360 6.4 16.1 0.00 0.00 0.00 35 1009.4
20260508024604 15 360 8.0 16.1 0.00 0.00 0.00 32 1009.3
20260508023053 16 360 8.0 14.5 0.00 0.00 0.00 32 1009.1
20260508021556 16 360 6.4 12.9 0.00 0.00 0.00 32 1009.0
20260508020055 17 360 4.8 9.7 0.00 0.00 0.00 30 1008.9
20260508014550 17 360 4.8 12.9 0.00 0.00 0.00 30 1008.9
20260508013053 18 360 4.8 9.7 0.00 0.00 0.00 28 1008.6
20260508011558 19 360 6.4 9.7 0.00 0.00 0.00 26 1008.5
20260508010052 19 360 4.8 9.7 0.00 0.00 0.00 27 1008.5
20260508004555 20 360 6.4 9.7 0.00 0.00 0.00 25 1008.3
20260508003053 21 360 4.8 9.7 0.00 0.00 0.00 24 1008.3
20260508001551 22 360 8.0 16.1 0.00 0.00 0.00 23 1008.4
20260508000048 22 360 3.2 14.5 0.00 0.00 0.00 22 1008.4
20260507234550 22 360 8.0 19.3 0.00 0.00 0.00 20 1008.5
20260507233059 22 302 6.4 14.5 0.00 0.00 0.00 20 1008.5
20260507231555 22 360 9.7 19.3 0.00 0.00 0.00 19 1008.6
20260507230055 23 360 8.0 29.0 0.00 0.00 0.00 19 1008.7
20260507224556 23 360 20.9 25.7 0.00 0.00 0.00 19 1008.6
20260507223102 24 360 20.9 30.6 0.00 0.00 0.00 19 1008.3
20260507221557 24 360 14.5 27.4 0.00 0.00 0.00 18 1008.6
20260507220051 23 360 19.3 29.0 0.00 0.00 0.00 19 1008.7
20260507214606 23 360 14.5 24.1 0.00 0.00 0.00 19 1008.8
20260507213102 23 360 9.7 30.6 0.00 0.00 0.00 20 1009.0